Location: Pebble Beach Sunset Acres
(33.0837°N, 96.4508°W)
Time: 21:02:40
(UTC+00:00)

Okean 1 - Pass Details

Date: 01 July 2022
Orbit: 532 x 553 km, 82.5° (Epoch: 11 August)

Event Time Altitude Azimuth Distance (km) Brightness Sun altitude
Rises 09:12:00 0° 13° (NNE) 2,688 7.9 -21.8°
Reaches altitude 10° 09:14:44 10° 33° (NNE) 1,790 7.1 -21.4°
Maximum altitude 09:17:26 18° 77° (ENE) 1,360 6.0 -21.1°
Drops below altitude 10° 09:20:08 10° 120° (ESE) 1,777 6.0 -20.7°
Sets 09:22:49 0° 140° (SE) 2,661 6.7 -20.3°
